Philip, SD

1:41 PM MDT on July 25, 2017 (GMT -0600)
Philip

Weather History for KPHP - June, 2013

Change the Weather History Date:

Friday, June 7, 2013

  Actual Average Record
Temperature  
Mean Temperature 62 °F 64 °F  
Max Temperature 82 °F 78 °F 95 °F (1970)
Min Temperature 42 °F 51 °F 38 °F (1983)
Degree Days  
Heating Degree Days 3 3  
Month to date heating degree days 56 25  
Since 1 June heating degree days 56 25  
Since 1 July heating degree days 7078 7159  
Cooling Degree Days 0 2  
Month to date cooling degree days 0 14  
Year to date cooling degree days 21 41  
Since 1 June cooling degree days 0 14  
Growing Degree Days 12 (Base 50)    
Moisture  
Dew Point 51 °F    
Average Humidity 66    
Maximum Humidity 96    
Minimum Humidity 36    
Precipitation  
Precipitation 0.03 in 0.09 in 1.69 in (1968)
Month to date precipitation 0.04 0.72  
Year to date precipitation 5.60 7.64  
Sea Level Pressure  
Sea Level Pressure 29.83 in    
Wind  
Wind Speed 7 mph (ESE)    
Max Wind Speed 23 mph    
Max Gust Speed 29 mph    
Visibility 10 miles    
Events Rain , Thunderstorm    
T = Trace of Precipitation, MM = Missing Value Source: NWS Daily Summary

Daily Weather History Graph

Daily Weather History Graph

Search for Another Location

Airport or City:

Trip Planner

Search our weather history database for the weather conditions in past years. The results will help you decide how hot, cold, wet, or windy it might be!

Date:

Astronomy

Jun. 07, 2013 Rise Set
Actual Time 5:03 AM MDT 8:27 PM MDT
Civil Twilight 4:27 AM MDT 9:03 PM MDT
Nautical Twilight 3:41 AM MDT 9:50 PM MDT
Astronomical Twilight 2:42 AM MDT 10:49 PM MDT
Moon 4:30 AM MDT (6/7) 7:40 PM MDT (6/7)
Length of Visible Light 16h 35m
Length of Day
15h 23m
Waning Crescent, 1% of the Moon is Illuminated
Jun 7
Waning Crescent
Jun 8
New
Jun 16
First Quarter
Jun 23
Full
Jun 29
Last Quarter

Hourly Weather History & Observations

Time (MDT) Temp. Heat Index Dew Point Humidity Pressure Visibility Wind Dir Wind Speed Gust Speed Precip Events Conditions
12:55 AM 46.9 °F - 44.1 °F 90% 30.04 in 10.0 mi Calm Calm - N/A   Clear
1:55 AM 45.0 °F - 43.0 °F 93% 30.03 in 10.0 mi Calm Calm - N/A   Clear
2:55 AM 44.1 °F - 42.1 °F 93% 30.03 in 10.0 mi Calm Calm - N/A   Clear
3:55 AM 44.1 °F - 41.0 °F 89% 30.01 in 10.0 mi Calm Calm - N/A   Clear
4:55 AM 43.0 °F - 41.0 °F 93% 30.01 in 10.0 mi Calm Calm - N/A   Clear
5:55 AM 43.0 °F - 41.0 °F 93% 30.01 in 10.0 mi Calm Calm - N/A   Clear
6:55 AM 52.0 °F - 48.0 °F 86% 29.99 in 10.0 mi Calm Calm - N/A   Clear
7:55 AM 57.9 °F - 52.0 °F 81% 29.98 in 10.0 mi ESE 4.6 mph - N/A   Clear
8:55 AM 66.0 °F - 53.1 °F 63% 29.96 in 10.0 mi SSE 5.8 mph - N/A   Clear
9:55 AM 69.1 °F - 53.1 °F 57% 29.93 in 10.0 mi SSE 6.9 mph - N/A   Clear
10:55 AM 73.0 °F - 52.0 °F 48% 29.91 in 10.0 mi SSE 6.9 mph - N/A   Clear
11:55 AM 75.0 °F - 52.0 °F 44% 29.88 in 10.0 mi ESE 9.2 mph - N/A   Clear
12:55 PM 77.0 °F - 53.1 °F 43% 29.86 in 10.0 mi SSE 11.5 mph 23.0 mph N/A   Clear
1:55 PM 79.0 °F - 54.0 °F 42% 29.84 in 10.0 mi SSE 16.1 mph 19.6 mph N/A   Clear
2:55 PM 81.0 °F 80.5 °F 54.0 °F 39% 29.81 in 10.0 mi SE 15.0 mph 18.4 mph N/A   Clear
3:55 PM 81.0 °F 80.4 °F 53.1 °F 38% 29.77 in 10.0 mi South 10.4 mph - N/A   Clear
4:55 PM 80.1 °F - 52.0 °F 38% 29.75 in 10.0 mi South 8.1 mph - N/A   Clear
5:55 PM 77.0 °F - 54.0 °F 45% 29.73 in 10.0 mi ESE 10.4 mph - N/A   Clear
6:55 PM 73.9 °F - 55.9 °F 53% 29.70 in 10.0 mi East 11.5 mph - N/A   Clear
7:55 PM 71.1 °F - 55.9 °F 59% 29.68 in 10.0 mi ESE 9.2 mph - N/A   Clear
8:55 PM 69.1 °F - 54.0 °F 58% 29.65 in 10.0 mi ESE 12.7 mph - N/A   Mostly Cloudy
9:55 PM 68.0 °F - 53.1 °F 59% 29.62 in 10.0 mi ESE 12.7 mph 20.7 mph N/A   Mostly Cloudy
10:30 PM 68.0 °F - 53.6 °F 60% 29.70 in 10.0 mi Variable 3.5 mph - N/A Thunderstorm Mostly Cloudy
10:53 PM 66.2 °F - 55.4 °F 68% 29.71 in 10.0 mi NNE 11.5 mph 23.0 mph 0.00 in Rain Light Rain
10:55 PM 64.9 °F - 55.9 °F 73% 29.66 in 10.0 mi NE 13.8 mph 23.0 mph 0.00 in Rain , Thunderstorm Light Rain
11:02 PM 64.4 °F - 55.4 °F 73% 29.71 in 10.0 mi NNE 11.5 mph - 0.00 in Rain , Thunderstorm Light Rain
11:16 PM 62.6 °F - 57.2 °F 82% 29.73 in 10.0 mi NNE 9.2 mph - 0.00 in Rain Light Rain
11:55 PM 60.1 °F - 57.0 °F 90% 29.66 in 10.0 mi East 8.1 mph - 0.03 in   Mostly Cloudy